Location: Luxembourg
(49.6117°N, 6.1300°E)
Time: 11:43:43
(UTC+01:00)

Envisat - Pass Details

Date: 24 January 2019
Orbit: 764 x 766 km, 98.2° (Epoch: 21 February)

Event Time Altitude Azimuth Distance (km) Brightness Sun altitude
Rises 06:55:35 0° 27° (NNE) 3,244 6.4 -13.3°
Reaches altitude 10° 06:58:44 10° 48° (NE) 2,311 5.9 -12.8°
Maximum altitude 07:02:00 17° 88° (E) 1,865 6.1 -12.3°
Drops below altitude 10° 07:05:16 10° 128° (SE) 2,299 6.7 -11.8°
Sets 07:08:22 0° 149° (SSE) 3,219 7.0 -11.3°
